QPF
0.00 0.00 0.00 0.00 0.00 0.00 0.00 0.00 0.00 0.00 0.00 0.00 0.00 0.00 0.00 0.00 0.00 0.00 0.00 0.00 0.01 0.01 0.01 0.00 0.00 0.00 0.00 0.00 0.00 0.00 0.00 0.00 0.00 0.00 0.00 0.00 0.00 0.00 0.01 0.00 0.00 0.00 0.00
0.00 0.00 0.00 0.00 0.00 0.00 0.00 0.00 0.00 0.00 0.00 0.00 0.00 0.00 0.00 0.00 0.00 0.00 0.00 0.00 0.00 0.00 0.00 0.00 0.00 0.00 0.00 0.00 0.00 0.00 0.00 0.00 0.00 0.00 0.00 0.00 0.00 0.00 0.02 0.00 0.00 0.00 0.01
0.00 0.00 0.00 0.00 0.00 0.00 0.01 0.00 0.01 0.01 0.01 0.01 0.01 0.00 0.00 0.00 0.00 0.00 0.00 0.00 0.00 0.00 0.00 0.00 0.00 0.00 0.00 0.00 0.00 0.00 0.00 0.00 0.00 0.00 0.00 0.00 0.00 0.00 0.01 0.01 0.01 0.02 0.01
0.00 0.00 0.00 0.00 0.00 0.00 0.00 0.00 0.01 0.01 0.01 0.00 0.00 0.00 0.00 0.00 0.00 0.00 0.00 0.00 0.00 0.00 0.00 0.00 0.00 0.00 0.00 0.00 0.00 0.00 0.00 0.00 0.00 0.00 0.00 0.00 0.00 0.00 0.00 0.00 0.00 0.00 0.00
0.00 0.00 0.00 0.00 0.00 0.00 0.00 0.00 0.00 0.00 0.00 0.00 0.00 0.00 0.00 0.00 0.00 0.00 0.00 0.00 0.00 0.00 0.00 0.00 0.00 0.00 0.00 0.00 0.00 0.00 0.00 0.00 0.00 0.00 0.00 0.00 0.00 0.00 0.00 0.01 0.00 0.00 0.00
0.00 0.00 0.00 0.00 0.00 0.00 0.00 0.00 0.00 0.00 0.00 0.00 0.00 0.00 0.00 0.00 0.00 0.00 0.00 0.00 0.00 0.00 0.00 0.00 0.00 0.00 0.00 0.00 0.00 0.00 0.00 0.00 0.00 0.00 0.00 0.00 0.00 0.00 0.00 0.02 0.01 0.00 0.00
0.00 0.00 0.00 0.00 0.00 0.00 0.00 0.00 0.00 0.00 0.00 0.00 0.00 0.00 0.00 0.00 0.00 0.00 0.00 0.00 0.00 0.00 0.00 0.00 0.00 0.00 0.00 0.00 0.00 0.00 0.00 0.00 0.00 0.00 0.00 0.00 0.00 0.00 0.00 0.00 0.01 0.00 0.00
0.00 0.00 0.00 0.00 0.00 0.00 0.00 0.00 0.00 0.00 0.00 0.00 0.00 0.00 0.00 0.00 0.00 0.00 0.00 0.00 0.00 0.00 0.00 0.00 0.00 0.00 0.00 0.00 0.00 0.00 0.00 0.00 0.00 0.00 0.00 0.00 0.00 0.00 0.00 0.00 0.01 0.01 0.00
0.00 0.00 0.00 0.00 0.00 0.00 0.00 0.00 0.00 0.00 0.00 0.00 0.00 0.00 0.00 0.00 0.00 0.00 0.00 0.00 0.00 0.00 0.00 0.00 0.00 0.00 0.00 0.00 0.00 0.00 0.00 0.00 0.00 0.00 0.00 0.00 0.00 0.00 0.00 0.00 0.00 0.01 0.01
0.00 0.00 0.00 0.00 0.00 0.00 0.00 0.00 0.00 0.00 0.00 0.00 0.00 0.00 0.00 0.00 0.00 0.00 0.00 0.00 0.00 0.00 0.00 0.00 0.00 0.00 0.00 0.00 0.00 0.00 0.00 0.00 0.00 0.00 0.00 0.00 0.00 0.00 0.00 0.00 0.00 0.00 0.00
0.00 0.00 0.00 0.00 0.00 0.00 0.00 0.00 0.00 0.00 0.00 0.00 0.00 0.00 0.00 0.00 0.00 0.00 0.00 0.00 0.00 0.00 0.00 0.00 0.00 0.00 0.00 0.00 0.00 0.00 0.00 0.00 0.00 0.00 0.00 0.00 0.00 0.00 0.00 0.00 0.00 0.00 0.00
0.00 0.00 0.00 0.00 0.00 0.00 0.00 0.00 0.00 0.00 0.00 0.00 0.00 0.00 0.00 0.00 0.00 0.00 0.00 0.00 0.00 0.00 0.00 0.00 0.00 0.00 0.00 0.00 0.00 0.00 0.00 0.00 0.00 0.00 0.00 0.00 0.00 0.00 0.00 0.00 0.00 0.00 0.00
0.00 0.00 0.00 0.00 0.00 0.00 0.00 0.00 0.00 0.00 0.00 0.00 0.00 0.00 0.00 0.00 0.00 0.00 0.00 0.00 0.00 0.00 0.00 0.00 0.00 0.00 0.00 0.00 0.00 0.00 0.00 0.00 0.00 0.00 0.00 0.00 0.00 0.00 0.00 0.00 0.00 0.00 0.00
0.00 0.00 0.00 0.00 0.00 0.00 0.00 0.00 0.00 0.00 0.00 0.00 0.00 0.00 0.00 0.00 0.00 0.00 0.00 0.00 0.00 0.00 0.00 0.00 0.00 0.00 0.00 0.00 0.00 0.00 0.00 0.00 0.00 0.00 0.00 0.00 0.00 0.00 0.00 0.00 0.00 0.00 0.00
0.00 0.00 0.00 0.00 0.00 0.00 0.00 0.00 0.00 0.00 0.00 0.00 0.00 0.00 0.00 0.00 0.00 0.00 0.00 0.00 0.00 0.00 0.00 0.00 0.00 0.00 0.00 0.00 0.00 0.00 0.00 0.00 0.00 0.00 0.00 0.00 0.00 0.00 0.00 0.00 0.00 0.00 0.00
0.00 0.00 0.00 0.00 0.00 0.00 0.00 0.00 0.00 0.00 0.00 0.00 0.00 0.00 0.00 0.00 0.00 0.00 0.00 0.00 0.00 0.00 0.00 0.00 0.00 0.00 0.00 0.00 0.00 0.00 0.00 0.00 0.00 0.00 0.00 0.00 0.00 0.00 0.00 0.00 0.00 0.00 0.00
0.00 0.00 0.00 0.00 0.00 0.00 0.00 0.00 0.00 0.00 0.00 0.00 0.00 0.00 0.00 0.00 0.00 0.00 0.00 0.00 0.00 0.00 0.00 0.00 0.00 0.00 0.00 0.00 0.00 0.00 0.00 0.00 0.00 0.00 0.00 0.00 0.00 0.00 0.00 0.00 0.00 0.00 0.00
0.00 0.00 0.00 0.00 0.00 0.00 0.00 0.00 0.00 0.00 0.00 0.00 0.00 0.00 0.00 0.00 0.00 0.00 0.00 0.00 0.00 0.00 0.00 0.00 0.00 0.00 0.00 0.00 0.00 0.00 0.00 0.00 0.00 0.00 0.00 0.00 0.00 0.00 0.00 0.00 0.00 0.00 0.00
0.00 0.00 0.00 0.00 0.00 0.00 0.00 0.00 0.00 0.00 0.00 0.00 0.00 0.00 0.00 0.00 0.00 0.00 0.00 0.00 0.00 0.00 0.00 0.00 0.00 0.00 0.00 0.00 0.00 0.00 0.00 0.00 0.00 0.00 0.00 0.00 0.00 0.00 0.00 0.00 0.00 0.00 0.00
0.00 0.00 0.00 0.00 0.00 0.00 0.00 0.00 0.00 0.00 0.00 0.00 0.00 0.00 0.00 0.00 0.00 0.00 0.00 0.00 0.00 0.00 0.00 0.00 0.00 0.00 0.00 0.00 0.00 0.00 0.00 0.00 0.00 0.00 0.00 0.00 0.00 0.00 0.00 0.00 0.00 0.00 0.00
0.00 0.00 0.00 0.00 0.00 0.00 0.00 0.00 0.00 0.00 0.00 0.00 0.00 0.00 0.00 0.00 0.00 0.00 0.00 0.00 0.00 0.00 0.00 0.00 0.00 0.00 0.00 0.00 0.00 0.00 0.00 0.00 0.00 0.00 0.00 0.00 0.00 0.00 0.00 0.00 0.00 0.00 0.00
0.00 0.00 0.00 0.00 0.00 0.00 0.00 0.00 0.00 0.00 0.00 0.00 0.00 0.00 0.00 0.00 0.00 0.00 0.00 0.00 0.00 0.00 0.00 0.00 0.00 0.00 0.00 0.00 0.00 0.00 0.00 0.00 0.00 0.00 0.00 0.00 0.00 0.00 0.00 0.00 0.00 0.00 0.00
0.00 0.00 0.00 0.00 0.00 0.00 0.00 0.00 0.00 0.00 0.00 0.00 0.00 0.00 0.00 0.00 0.00 0.00 0.00 0.00 0.00 0.00 0.00 0.00 0.00 0.00 0.00 0.00 0.00 0.00 0.00 0.00 0.00 0.00 0.00 0.00 0.00 0.00 0.00 0.00 0.00 0.00 0.00
0.00 0.00 0.00 0.00 0.00 0.00 0.00 0.00 0.00 0.00 0.00 0.00 0.00 0.00 0.00 0.00 0.00 0.00 0.00 0.00 0.00 0.00 0.00 0.00 0.00 0.00 0.00 0.00 0.00 0.00 0.00 0.00 0.00 0.00 0.00 0.00 0.00 0.00 0.00 0.00 0.00 0.00 0.00
0.00 0.00 0.00 0.00 0.00 0.00 0.00 0.00 0.00 0.00 0.00 0.00 0.00 0.00 0.00 0.00 0.00 0.00 0.00 0.00 0.00 0.00 0.00 0.00 0.00 0.00 0.00 0.00 0.00 0.00 0.00 0.00 0.00 0.00 0.00 0.00 0.00 0.00 0.00 0.00 0.00 0.00 0.00
0.00 0.00 0.00 0.00 0.00 0.00 0.00 0.00 0.00 0.00 0.00 0.00 0.00 0.00 0.00 0.00 0.00 0.00 0.00 0.00 0.00 0.00 0.00 0.00 0.00 0.00 0.00 0.00 0.00 0.00 0.00 0.00 0.00 0.00 0.00 0.00 0.00 0.00 0.00 0.00 0.00 0.00 0.00
MSLP
1016.15 1015.94 1015.91 1016.07 1016.30 1016.46 1016.64 1016.88 1017.04 1017.24 1017.41 1017.43 1017.51 1017.66 1017.84 1017.98 1018.22 1018.29 1018.28 1018.34 1018.18 1018.16 1018.31 1018.39 1018.45 1018.48 1018.50 1018.58 1018.51 1018.37 1018.37 1018.36 1018.32 1018.17 1017.98 1017.74 1017.72 1017.59 1017.54 1017.65 1017.70 1017.62 1017.47
1015.13 1015.59 1015.75 1015.92 1016.14 1016.43 1016.67 1016.86 1017.08 1017.19 1017.26 1017.44 1017.58 1017.73 1017.85 1018.04 1018.26 1018.45 1018.50 1018.64 1018.52 1018.40 1018.57 1018.66 1018.72 1018.95 1018.93 1018.79 1018.67 1018.57 1018.62 1018.68 1018.62 1018.48 1018.26 1018.07 1017.84 1017.68 1017.65 1017.77 1017.81 1017.69 1017.62
1015.24 1015.47 1015.61 1015.82 1016.05 1016.28 1016.56 1016.82 1017.02 1017.22 1017.34 1017.53 1017.72 1017.97 1018.05 1018.11 1018.38 1018.59 1018.61 1018.75 1018.70 1018.73 1018.86 1018.92 1019.15 1019.36 1019.33 1019.06 1018.96 1018.94 1019.07 1019.12 1019.02 1018.86 1018.64 1018.40 1018.27 1017.99 1017.86 1017.88 1017.82 1017.69 1017.58
1015.27 1015.59 1015.79 1015.87 1016.02 1016.40 1016.54 1016.72 1016.98 1017.18 1017.39 1017.63 1017.90 1018.25 1018.39 1018.50 1018.65 1018.80 1018.85 1018.84 1018.96 1018.98 1019.04 1019.21 1019.35 1019.55 1019.53 1019.43 1019.34 1019.38 1019.41 1019.34 1019.23 1019.10 1019.03 1018.73 1018.59 1018.27 1017.98 1017.91 1017.92 1017.93 1017.81
1015.59 1015.76 1015.96 1016.15 1016.29 1016.52 1016.74 1016.87 1017.02 1017.20 1017.32 1017.74 1018.05 1018.33 1018.46 1018.67 1018.91 1019.22 1019.27 1019.27 1019.20 1019.37 1019.38 1019.56 1019.50 1019.65 1019.68 1019.72 1019.48 1019.54 1019.49 1019.46 1019.45 1019.44 1019.36 1019.17 1019.01 1018.53 1018.23 1018.06 1018.08 1018.16 1018.19
1015.79 1015.95 1016.14 1016.26 1016.45 1016.62 1016.80 1016.95 1017.19 1017.35 1017.56 1017.85 1018.21 1018.45 1018.66 1018.91 1019.14 1019.17 1019.31 1019.37 1019.48 1019.59 1019.64 1019.74 1019.80 1019.81 1019.78 1019.83 1019.75 1019.98 1019.70 1019.54 1019.79 1019.75 1019.62 1019.47 1019.23 1018.77 1018.37 1018.21 1018.16 1018.26 1018.22
1015.80 1016.03 1016.21 1016.37 1016.51 1016.76 1016.87 1016.93 1017.13 1017.45 1017.72 1018.16 1018.31 1018.63 1018.85 1019.04 1019.20 1019.32 1019.40 1019.63 1019.66 1019.73 1019.85 1019.88 1019.92 1019.88 1019.78 1020.08 1020.24 1020.20 1020.03 1020.04 1020.11 1020.19 1019.93 1019.66 1019.52 1018.88 1018.41 1018.28 1018.20 1018.27 1018.26
1015.71 1015.93 1016.10 1016.25 1016.50 1016.73 1016.88 1017.04 1017.36 1017.55 1017.89 1018.23 1018.44 1018.80 1019.03 1019.23 1019.42 1019.58 1019.66 1019.72 1019.74 1019.92 1020.04 1020.25 1020.25 1020.20 1020.25 1020.31 1020.35 1020.50 1020.43 1020.50 1020.54 1020.55 1020.37 1020.07 1019.63 1018.95 1018.61 1018.54 1018.48 1018.44 1018.39
1016.04 1016.19 1016.19 1016.32 1016.53 1016.76 1016.91 1017.11 1017.35 1017.65 1017.97 1018.29 1018.57 1018.81 1019.09 1019.27 1019.56 1019.76 1019.84 1019.88 1019.96 1020.09 1020.27 1020.39 1020.46 1020.49 1020.62 1020.69 1020.80 1020.87 1020.70 1020.72 1020.88 1021.04 1020.73 1020.36 1019.87 1019.23 1018.99 1018.86 1018.80 1018.81 1018.73
1016.34 1016.44 1016.51 1016.62 1016.71 1016.89 1017.08 1017.24 1017.46 1017.75 1018.12 1018.37 1018.66 1019.02 1019.36 1019.77 1019.86 1020.03 1020.04 1019.94 1020.14 1020.29 1020.46 1020.71 1020.78 1020.84 1020.85 1020.95 1021.04 1021.10 1021.02 1021.12 1021.13 1021.17 1021.01 1020.65 1019.96 1019.47 1019.22 1019.17 1019.18 1019.06 1018.94
1016.44 1016.42 1016.49 1016.68 1016.94 1017.14 1017.34 1017.47 1017.67 1017.89 1018.20 1018.57 1018.95 1019.32 1019.64 1020.17 1020.39 1020.43 1020.22 1020.16 1020.34 1020.50 1020.79 1020.97 1021.11 1021.32 1021.47 1021.39 1021.21 1021.37 1021.39 1021.55 1021.43 1021.45 1021.22 1020.62 1020.17 1019.84 1019.55 1019.29 1019.31 1019.18 1019.08
1016.18 1016.11 1016.29 1016.51 1016.76 1017.17 1017.35 1017.66 1017.88 1018.09 1018.44 1018.85 1019.29 1019.70 1020.23 1020.56 1020.60 1020.58 1020.55 1020.56 1020.75 1020.91 1021.07 1021.16 1021.42 1021.70 1021.90 1021.87 1021.74 1021.66 1021.70 1021.74 1021.81 1021.69 1021.42 1020.81 1020.44 1020.04 1019.76 1019.64 1019.41 1019.15 1019.11
1015.14 1015.83 1015.88 1016.20 1016.62 1017.06 1017.39 1017.79 1018.14 1018.37 1018.70 1019.11 1019.39 1019.82 1020.25 1020.58 1020.80 1020.89 1021.06 1021.34 1021.43 1021.43 1021.65 1021.76 1021.90 1021.94 1021.94 1022.03 1022.01 1022.11 1021.94 1021.92 1022.04 1021.78 1021.58 1021.16 1020.93 1020.52 1020.15 1019.81 1019.58 1019.34 1019.15
1014.47 1014.71 1015.40 1015.82 1016.30 1016.77 1017.23 1017.63 1017.99 1018.39 1018.81 1019.20 1019.39 1019.72 1020.20 1020.63 1020.94 1021.06 1021.22 1021.28 1021.39 1021.60 1021.80 1021.98 1022.15 1022.22 1022.16 1022.10 1022.06 1022.04 1021.96 1021.99 1022.02 1022.00 1021.80 1021.44 1021.12 1020.63 1020.23 1019.87 1019.76 1019.56 1019.35
1013.64 1013.89 1014.41 1015.18 1015.65 1016.16 1016.80 1017.21 1017.71 1018.11 1018.48 1018.82 1019.24 1019.45 1019.76 1020.43 1020.88 1021.16 1021.38 1021.52 1021.58 1021.63 1021.90 1022.15 1022.26 1022.34 1022.26 1022.14 1022.16 1022.17 1022.13 1022.03 1021.97 1021.82 1021.95 1021.50 1021.16 1020.79 1020.58 1020.18 1019.88 1019.74 1019.47
1012.49 1012.79 1013.52 1014.04 1014.67 1015.38 1016.04 1016.50 1016.87 1017.50 1018.02 1018.57 1018.99 1019.22 1019.52 1020.04 1020.59 1021.10 1021.59 1021.65 1021.67 1021.65 1021.79 1021.93 1022.20 1022.27 1022.31 1022.16 1022.36 1022.14 1022.15 1021.99 1021.85 1021.87 1021.91 1021.77 1021.18 1021.02 1020.78 1020.38 1020.15 1019.72 1019.62
1011.13 1012.03 1012.32 1013.07 1013.86 1014.40 1015.00 1015.71 1016.33 1016.85 1017.49 1018.06 1018.42 1018.85 1019.26 1019.83 1020.44 1020.94 1021.29 1021.57 1021.61 1021.59 1021.68 1021.98 1022.14 1022.24 1022.45 1022.23 1022.37 1022.24 1022.10 1021.90 1021.96 1021.77 1021.86 1021.76 1021.46 1021.21 1020.94 1020.75 1020.29 1020.22 1020.06
1010.39 1010.52 1011.27 1011.94 1012.61 1013.37 1014.04 1014.81 1015.64 1016.35 1016.88 1017.40 1017.95 1018.43 1018.95 1019.53 1019.99 1020.59 1021.02 1021.36 1021.29 1021.57 1021.75 1021.91 1022.16 1022.47 1022.59 1022.49 1022.44 1022.19 1022.17 1022.06 1021.88 1021.90 1021.86 1021.75 1021.70 1021.55 1021.42 1020.98 1020.96 1020.90 1020.50
1008.44 1009.47 1010.23 1010.80 1011.31 1012.06 1013.20 1014.06 1014.89 1015.65 1016.26 1016.86 1017.55 1018.08 1018.53 1019.01 1019.50 1020.06 1020.58 1021.00 1021.08 1021.54 1021.70 1021.84 1022.28 1022.40 1022.58 1022.59 1022.43 1022.22 1022.21 1022.16 1022.07 1022.16 1022.08 1022.04 1021.92 1021.89 1021.72 1021.61 1021.68 1021.46 1021.16
1007.37 1008.07 1008.89 1009.78 1010.46 1011.48 1012.60 1013.74 1014.72 1015.45 1016.07 1016.56 1017.05 1017.59 1018.11 1018.58 1019.11 1019.73 1020.31 1020.73 1020.99 1021.36 1021.70 1021.84 1022.05 1022.33 1022.55 1022.60 1022.39 1022.31 1022.25 1022.14 1022.28 1022.28 1022.53 1022.49 1022.47 1022.51 1022.36 1022.49 1022.32 1022.12 1021.79
1006.66 1007.27 1007.72 1008.71 1009.51 1010.69 1011.92 1013.01 1014.19 1014.48 1015.45 1016.14 1016.57 1016.99 1017.63 1018.22 1018.77 1019.41 1020.03 1020.60 1020.88 1021.21 1021.37 1021.56 1022.03 1022.40 1022.75 1022.44 1022.38 1022.40 1022.46 1022.36 1022.38 1022.57 1022.64 1022.78 1022.83 1022.96 1022.80 1022.77 1022.67 1022.67 1022.22
1005.27 1006.14 1007.09 1007.72 1008.71 1009.44 1010.39 1011.20 1012.30 1013.43 1014.66 1015.29 1016.08 1016.65 1017.13 1017.76 1018.36 1019.04 1019.57 1020.14 1020.51 1020.90 1021.23 1021.47 1021.66 1022.45 1022.97 1022.92 1023.16 1023.55 1023.33 1023.00 1022.89 1022.95 1023.03 1022.99 1023.03 1022.90 1022.88 1022.70 1022.47 1022.51 1022.39
1005.00 1005.35 1005.87 1006.55 1007.52 1008.39 1009.49 1010.98 1012.26 1013.55 1014.77 1015.59 1016.06 1016.40 1016.71 1017.23 1017.90 1018.51 1019.18 1019.75 1020.08 1020.44 1020.65 1020.86 1021.30 1021.80 1022.72 1023.16 1023.06 1023.34 1023.88 1024.12 1024.02 1023.25 1023.18 1023.29 1023.26 1023.30 1023.34 1023.15 1022.81 1022.66 1022.56
1003.85 1004.64 1005.42 1006.23 1007.11 1007.95 1008.80 1009.78 1010.74 1011.30 1012.74 1013.36 1014.02 1015.28 1016.13 1016.79 1017.48 1018.07 1018.77 1019.43 1019.99 1020.39 1020.56 1020.68 1020.89 1021.24 1021.69 1022.64 1023.22 1023.34 1023.66 1024.10 1024.54 1024.31 1023.49 1023.35 1023.19 1023.30 1023.42 1023.19 1023.01 1022.90 1022.68
1003.60 1004.23 1005.18 1005.97 1006.91 1007.51 1008.24 1008.82 1009.47 1010.34 1011.35 1012.27 1013.50 1014.62 1015.46 1016.24 1016.74 1017.33 1017.94 1018.78 1019.60 1020.44 1020.61 1020.68 1021.08 1021.48 1021.63 1022.14 1022.41 1023.24 1023.62 1024.07 1024.43 1025.16 1025.10 1024.50 1023.95 1023.53 1023.54 1023.43 1023.20 1022.86 1022.44
1003.78 1003.99 1004.77 1005.77 1006.59 1007.19 1007.77 1008.39 1008.95 1009.62 1010.59 1011.72 1012.70 1013.71 1014.64 1015.54 1016.28 1016.77 1017.31 1017.82 1018.40 1019.24 1019.94 1020.53 1020.92 1021.24 1021.69 1021.90 1022.14 1022.24 1022.59 1023.30 1023.97 1024.42 1025.04 1024.58 1024.56 1023.77 1023.27 1022.93 1022.85 1022.89 1022.87
Thickness
5721 5721 5720 5717 5715 5712 5709 5707 5706 5705 5705 5705 5705 5705 5705 5704 5703 5703 5705 5705 5706 5708 5707 5707 5709 5710 5710 5709 5711 5712 5713 5715 5716 5718 5720 5723 5722 5723 5724 5725 5725 5727 5729
5728 5723 5721 5719 5717 5714 5712 5709 5707 5706 5706 5705 5705 5704 5704 5703 5702 5701 5703 5703 5705 5706 5706 5706 5706 5705 5706 5708 5710 5711 5711 5711 5712 5714 5716 5719 5720 5721 5722 5722 5722 5724 5725
5727 5724 5721 5719 5716 5715 5713 5711 5710 5708 5706 5705 5705 5703 5703 5703 5702 5702 5702 5702 5703 5704 5704 5704 5703 5701 5702 5705 5706 5707 5706 5707 5708 5710 5712 5715 5716 5717 5719 5719 5721 5723 5725
5725 5722 5720 5718 5716 5713 5712 5711 5710 5708 5707 5706 5703 5701 5702 5701 5700 5700 5701 5702 5701 5701 5703 5702 5703 5701 5701 5702 5703 5702 5703 5705 5706 5708 5709 5712 5713 5715 5717 5718 5719 5719 5721
5721 5720 5718 5715 5713 5711 5710 5709 5708 5707 5707 5704 5702 5701 5700 5698 5697 5696 5697 5697 5699 5697 5699 5698 5701 5700 5700 5699 5702 5700 5702 5703 5703 5705 5706 5707 5708 5711 5713 5715 5715 5714 5715
5718 5716 5714 5712 5710 5709 5708 5706 5705 5703 5702 5700 5699 5697 5697 5696 5695 5695 5695 5695 5694 5694 5695 5695 5696 5696 5697 5698 5699 5696 5699 5701 5699 5702 5703 5704 5706 5707 5708 5710 5711 5710 5711
5716 5713 5711 5709 5708 5706 5706 5705 5704 5701 5699 5697 5697 5694 5694 5693 5693 5692 5693 5691 5692 5692 5692 5692 5692 5693 5695 5692 5692 5694 5695 5696 5697 5696 5698 5700 5700 5703 5707 5707 5708 5707 5708
5715 5713 5710 5708 5706 5704 5703 5702 5700 5698 5696 5695 5694 5691 5690 5690 5689 5688 5688 5688 5689 5688 5688 5686 5687 5688 5688 5688 5688 5688 5689 5689 5691 5690 5692 5695 5695 5700 5703 5704 5704 5704 5704
5711 5709 5708 5706 5703 5701 5700 5699 5697 5695 5693 5691 5690 5689 5687 5687 5684 5683 5683 5684 5684 5684 5682 5682 5683 5683 5682 5683 5682 5682 5684 5685 5687 5684 5686 5689 5690 5695 5697 5698 5698 5699 5700
5707 5705 5704 5702 5700 5699 5697 5695 5693 5691 5688 5687 5685 5683 5682 5679 5679 5678 5678 5680 5679 5679 5678 5677 5677 5677 5677 5677 5677 5678 5680 5680 5680 5680 5682 5683 5688 5691 5692 5692 5691 5693 5694
5704 5703 5702 5700 5696 5694 5692 5690 5687 5685 5683 5680 5678 5676 5675 5673 5672 5672 5673 5674 5673 5672 5670 5670 5670 5669 5668 5669 5672 5671 5673 5673 5674 5674 5676 5680 5683 5684 5685 5687 5686 5687 5687
5704 5704 5701 5699 5696 5692 5689 5686 5683 5681 5678 5675 5672 5669 5667 5665 5666 5666 5666 5666 5665 5664 5663 5663 5662 5661 5661 5662 5663 5664 5665 5665 5665 5667 5669 5672 5674 5677 5676 5676 5679 5681 5681
5711 5703 5701 5698 5694 5689 5685 5682 5678 5676 5673 5669 5667 5664 5661 5659 5658 5658 5657 5656 5656 5656 5655 5654 5654 5654 5655 5655 5656 5655 5656 5656 5657 5659 5661 5663 5664 5666 5668 5669 5671 5674 5674
5708 5707 5700 5696 5692 5687 5683 5678 5674 5671 5668 5664 5663 5660 5657 5654 5652 5652 5651 5650 5650 5649 5648 5647 5646 5646 5647 5647 5648 5648 5650 5650 5650 5650 5652 5653 5655 5658 5660 5664 5664 5666 5666
5709 5707 5702 5695 5691 5686 5681 5677 5672 5668 5664 5662 5658 5657 5655 5650 5647 5644 5642 5642 5642 5641 5639 5637 5637 5637 5637 5638 5638 5638 5639 5641 5641 5643 5643 5645 5647 5649 5651 5653 5656 5657 5660
5711 5707 5700 5697 5691 5684 5680 5676 5671 5666 5661 5657 5653 5651 5649 5645 5641 5638 5635 5634 5633 5633 5632 5631 5629 5629 5628 5629 5628 5630 5630 5632 5633 5634 5633 5636 5640 5641 5643 5645 5647 5650 5651
5714 5704 5702 5695 5689 5686 5681 5674 5668 5663 5658 5654 5651 5647 5644 5640 5636 5633 5631 5628 5628 5627 5626 5623 5621 5621 5618 5620 5618 5620 5621 5623 5623 5626 5624 5625 5630 5631 5633 5634 5638 5637 5639
5711 5709 5701 5696 5691 5685 5680 5673 5667 5661 5656 5652 5648 5644 5639 5635 5632 5629 5626 5623 5623 5620 5618 5616 5613 5610 5609 5609 5608 5610 5611 5612 5614 5614 5615 5616 5617 5619 5620 5622 5623 5623 5626
5719 5710 5702 5697 5693 5687 5678 5670 5664 5657 5654 5648 5644 5640 5636 5632 5629 5625 5621 5618 5617 5613 5611 5608 5605 5604 5601 5599 5599 5601 5601 5602 5603 5601 5602 5603 5605 5606 5608 5608 5608 5610 5612
5718 5713 5705 5697 5692 5683 5674 5664 5655 5650 5648 5643 5639 5635 5631 5627 5624 5619 5615 5612 5610 5606 5602 5599 5597 5594 5592 5591 5592 5591 5591 5592 5591 5591 5589 5588 5589 5589 5590 5590 5593 5595 5598
5715 5711 5707 5697 5691 5681 5670 5660 5652 5651 5642 5636 5632 5629 5625 5621 5617 5613 5608 5603 5600 5597 5594 5592 5587 5584 5580 5582 5582 5581 5579 5580 5579 5578 5577 5577 5576 5575 5577 5578 5580 5580 5584
5720 5713 5704 5697 5688 5682 5674 5667 5659 5650 5638 5634 5626 5623 5620 5615 5611 5606 5601 5597 5593 5590 5586 5583 5580 5573 5569 5568 5566 5561 5561 5566 5565 5564 5563 5565 5563 5565 5565 5566 5569 5569 5570
5710 5707 5703 5697 5688 5680 5672 5658 5647 5637 5627 5621 5617 5615 5612 5609 5604 5599 5593 5588 5585 5582 5580 5578 5574 5570 5561 5556 5557 5556 5550 5551 5542 5552 5552 5550 5550 5551 5551 5551 5554 5555 5556
5710 5701 5695 5689 5680 5673 5667 5658 5651 5649 5638 5631 5624 5613 5607 5602 5596 5591 5585 5579 5574 5571 5569 5567 5565 5563 5561 5554 5547 5543 5539 5536 5533 5534 5538 5540 5541 5539 5538 5539 5540 5541 5541
5698 5691 5684 5678 5670 5664 5658 5654 5649 5645 5638 5625 5614 5606 5601 5595 5591 5586 5580 5572 5564 5557 5556 5555 5552 5549 5548 5544 5542 5536 5532 5526 5521 5516 5513 5516 5521 5523 5522 5522 5523 5524 5526
5686 5684 5677 5667 5659 5655 5650 5645 5642 5638 5627 5618 5611 5604 5597 5590 5584 5580 5576 5571 5565 5557 5551 5545 5542 5539 5535 5533 5532 5532 5529 5524 5518 5513 5507 5506 5502 5504 5509 5510 5509 5507 5504